Regional Weather Roundup
Issued by NWS Cleveland, OH

Home | Current Version | Previous Version | Graphics & Text | Print | Product List | Glossary On
Versions: 1 2 3 4 5 6 7 8 9 10 11 12 13 14 15 16 17 18 19 20 21 22 23 24 25 26 27 28 29 30 31 32 33 34 35 36 37 38 39 40 41 42 43 44 45 46 47 48 49 50
000
ASUS41 KCLE 231802
RWRCLE
OHIO REGIONAL WEATHER ROUNDUP
NATIONAL WEATHER SERVICE CLEVELAND, OH
200 PM EDT WED APR 23 2014

NOTE: "FAIR" INDICATES FEW OR NO CLOUDS BELOW 12,000 FEET WITH NO
SIGNIFICANT WEATHER AND/OR OBSTRUCTIONS TO VISIBILITY.

OHZ001>008-015>018-024>027-034-035-043-044-231900-
   NORTHWEST OHIO

CITY           SKY/WX    TMP DP  RH WIND       PRES   REMARKS
DEFIANCE       SUNNY     54  29  38 N9        30.09F
FINDLAY        SUNNY     52  31  44 N8        30.08F
TOLEDO EXPRESS SUNNY     51  29  42 NE8       30.09F
TOLEDO EXEC    MOSUNNY   50  30  46 W9        30.10S
LIMA           MOSUNNY   53  34  48 NW10G18   30.09F
$$

OHZ009>014-019>023-028>033-038-089-231900-
   NORTHEAST OHIO

CITY           SKY/WX    TMP DP  RH WIND       PRES   REMARKS
CLE-HOPKINS    PTSUNNY   46  29  51 NW15      30.11S
CLE-LAKEFRONT  MOSUNNY   43  34  70 W12       30.08S
CUY CO. ARPT   PTSUNNY   43  32  65 W16       30.08S
LORAIN-ELYRIA  CLOUDY    47  31  53 N14       30.10S
ASHTABULA      PTSUNNY   43  29  57 NW17G28   30.04R
AKRON-CANTON   CLOUDY    44  33  65 NW10      30.06S
WOOSTER        NOT AVBL
MANSFIELD      CLOUDY    44  32  62 NW10      30.08S
YOUNGSTOWN     CLOUDY    42  30  62 NW13G21   30.03R
$$

OHZ042-051>053-060>062-070>072-077>081-231900-
  SOUTHWEST OHIO

CITY           SKY/WX    TMP DP  RH WIND       PRES   REMARKS
CINC-COVINGTON SUNNY     56  31  38 VRB3      30.08F
CINC-LUNKEN    SUNNY     55  32  41 NE3       30.10F
HAMILTON       SUNNY     55  34  45 N6        30.10F
DAYTON         NOT AVBL
WRIGHT-PAT AFB MOSUNNY   52  34  50 N12       30.09F
DAYTON GENERAL MOSUNNY   53  33  46 VRB6      30.07F
WILMINGTON     MOSUNNY   52  32  46 W7        30.07F
$$

OHZ036-037-039>041-045>050-054>059-063>069-073>076-082>088-231900-
  CENTRAL AND SOUTHEAST OHIO

CITY           SKY/WX    TMP DP  RH WIND       PRES   REMARKS
COLUMBUS       MOSUNNY   54  33  45 N10G16    30.07F
OSU AIRPORT    MOSUNNY   51  33  50 NW9       30.07F
BOLTON FIELD   MOSUNNY   52  36  54 NW10      30.08F
RICKENBACK AFB NOT AVBL
NEWARK         PTSUNNY   51  34  52 NW9       30.06F
MARION         MOSUNNY   48  32  53 NW9       30.09F
LANCASTER      MOSUNNY   53  34  48 N9        30.07F
ZANESVILLE     CLOUDY    50  33  52 MISG      30.06F
NEW PHILLY     CLOUDY    44  31  60 NW12      30.07S
$$



USA.gov is the U.S. government's official web portal to all federal, state and local government web resources and services.